Location: Bremen
(53.0793°N, 8.8017°E)
Time: 03:35:29
(UTC+01:00)

S-56A Canister/Altair - All Passes

Search period start: 30 November 2021 00:00
Search period end: 10 December 2021 00:00
Orbit: 633 x 2500 km, 38.9° (Epoch: 29 November)

Date Brightness Start Highest point End Pass type
(mag) Time Alt. Az. Time Alt. Az. Time Alt. Az.
30 Nov - 02:26:43 10° SSW 02:31:00 18° S 02:34:32 10° SE night (unlit)
30 Nov - 04:30:16 10° SW 04:33:39 16° S 04:36:38 10° SSE visible
01 Dec - 01:53:46 10° SSW 01:58:29 18° S 02:02:19 10° SE night (unlit)
01 Dec - 03:57:16 10° SW 04:01:14 18° S 04:04:35 10° SSE visible
02 Dec - 01:20:46 10° SSW 01:25:56 19° SSE 01:30:04 10° SE night (unlit)
02 Dec - 03:24:13 10° SW 03:28:47 20° S 03:32:30 10° SE visible
02 Dec - 05:30:33 10° SSW 05:31:06 10° SSW 05:31:37 10° SSW visible
03 Dec - 00:47:44 10° SSW 00:53:20 19° SSE 00:57:47 10° ESE night (unlit)
03 Dec - 02:51:08 10° SW 02:56:19 22° S 03:00:24 10° SE night (unlit)
03 Dec - 04:56:31 10° SW 04:58:42 12° SSW 05:00:43 10° S visible
04 Dec - 00:14:40 10° SSW 00:20:43 19° SSE 00:25:29 10° ESE night (unlit)
04 Dec - 02:17:59 10° SW 02:23:48 23° S 02:28:16 10° SE night (unlit)
04 Dec - 04:23:05 10° WSW 04:26:18 15° SSW 04:29:06 10° S visible
04 Dec - 23:41:36 10° SSW 23:48:02 19° SSE 23:53:07 10° ESE night (unlit)
05 Dec - 01:44:46 10° SW 01:51:15 25° S 01:56:07 10° SE night (unlit)
05 Dec - 03:49:46 10° WSW 03:53:53 17° SSW 03:57:18 10° SSE visible
05 Dec - 23:08:32 10° SSW 23:15:19 19° SSE 23:20:42 10° ESE night (unlit)
06 Dec - 01:11:31 10° SW 01:18:39 26° S 01:23:55 10° SE night (unlit)
06 Dec - 03:16:28 10° WSW 03:21:26 20° SSW 03:25:25 10° SSE night (unlit)
06 Dec - 22:35:30 10° SSW 22:42:34 19° SSE 22:48:12 10° ESE night (unlit)
07 Dec - 00:38:14 10° SW 00:46:00 27° S 00:51:42 10° ESE night (unlit)
07 Dec - 02:43:08 10° WSW 02:48:57 23° SSW 02:53:26 10° SSE night (unlit)
07 Dec - 22:02:30 10° SSW 22:09:46 19° SSE 22:15:38 10° ESE visible
08 Dec - 00:04:54 10° SW 00:13:18 28° S 00:19:26 10° ESE night (unlit)
08 Dec - 02:09:46 10° WSW 02:16:26 25° SSW 02:21:25 10° SE night (unlit)
08 Dec - 04:17:09 10° SW 04:18:37 11° SW 04:20:01 10° SSW night (unlit)
08 Dec - 21:29:33 10° S 21:36:56 18° SSE 21:42:59 10° ESE visible
08 Dec - 23:31:35 10° SW 23:40:33 29° S 23:47:07 10° ESE night (unlit)
09 Dec - 01:36:22 10° WSW 01:43:51 28° SSW 01:49:20 10° SE night (unlit)
09 Dec - 03:42:54 10° WSW 03:46:13 14° SW 03:49:06 10° S night (unlit)
09 Dec - 20:56:41 10° S 21:04:03 18° SSE 21:10:13 10° ESE visible
09 Dec - 22:58:14 10° SW 23:07:45 29° SSE 23:14:45 10° ESE visible
